| time (UTC) | temp F | wind direction | speed MPH | gust MPH | rain 1hr in | rain 24hr in | rain mn in | humidity % | barometer mb |
| 20260906133255 | 66 | 3 | 0.0 | 0.0 | 0.00 | 0.00 | 0.00 | 98 | 1020.7 |
| 20260906132751 | 66 | 4 | 0.0 | 1.0 | 0.00 | 0.00 | 0.00 | 98 | 1020.7 |
| 20260906132246 | 65 | 5 | 0.0 | 1.0 | 0.00 | 0.00 | 0.00 | 98 | 1020.7 |
| 20260906131742 | 65 | 19 | 0.0 | 1.0 | 0.00 | 0.00 | 0.00 | 98 | 1020.5 |
| 20260906131236 | 65 | 21 | 1.0 | 1.0 | 0.00 | 0.00 | 0.00 | 98 | 1020.7 |
| 20260906130732 | 65 | 358 | 0.0 | 1.0 | 0.00 | 0.00 | 0.00 | 98 | 1020.6 |
| 20260906130227 | 65 | 17 | 0.0 | 0.0 | 0.00 | 0.00 | 0.00 | 98 | 1020.5 |
| 20260906125725 | 64 | 20 | 0.0 | 0.0 | 0.00 | 0.00 | 0.00 | 98 | 1020.6 |
| 20260906125223 | 64 | 19 | 0.0 | 0.0 | 0.00 | 0.00 | 0.00 | 98 | 1020.3 |
| 20260906124718 | 64 | 15 | 0.0 | 0.0 | 0.00 | 0.00 | 0.00 | 98 | 1020.1 |
| 20260906124214 | 64 | 1 | 1.0 | 1.0 | 0.00 | 0.00 | 0.00 | 98 | 1020.2 |
| 20260906123712 | 64 | 17 | 0.0 | 0.0 | 0.00 | 0.00 | 0.00 | 98 | 1020.1 |
| 20260906123208 | 63 | 16 | 0.0 | 0.0 | 0.00 | 0.00 | 0.00 | 98 | 1020.1 |
| 20260906122707 | 63 | 24 | 0.0 | 1.0 | 0.00 | 0.00 | 0.00 | 98 | 1020.1 |
| 20260906122203 | 63 | 23 | 0.0 | 1.0 | 0.00 | 0.00 | 0.00 | 98 | 1020.4 |
| 20260906121659 | 63 | 11 | 0.0 | 0.0 | 0.00 | 0.00 | 0.00 | 98 | 1020.1 |
| 20260906121155 | 62 | 8 | 0.0 | 0.0 | 0.00 | 0.00 | 0.00 | 98 | 1020.0 |
| 20260906120651 | 62 | 8 | 0.0 | 0.0 | 0.00 | 0.00 | 0.00 | 98 | 1019.6 |
| 20260906120148 | 62 | 8 | 0.0 | 0.0 | 0.00 | 0.00 | 0.00 | 98 | 1019.6 |
| 20260906115648 | 62 | 8 | 0.0 | 0.0 | 0.00 | 0.00 | 0.00 | 98 | 1019.6 |
| 20260906115143 | 62 | 8 | 0.0 | 0.0 | 0.00 | 0.00 | 0.00 | 98 | 1019.6 |
| 20260906114642 | 62 | 8 | 0.0 | 0.0 | 0.00 | 0.00 | 0.00 | 98 | 1019.7 |
| 20260906114138 | 62 | 8 | 0.0 | 0.0 | 0.00 | 0.00 | 0.00 | 98 | 1019.5 |
| 20260906113637 | 62 | 8 | 0.0 | 0.0 | 0.00 | 0.00 | 0.00 | 98 | 1019.4 |
| 20260906113132 | 62 | 8 | 0.0 | 0.0 | 0.00 | 0.00 | 0.00 | 98 | 1019.2 |
| 20260906112631 | 62 | 8 | 0.0 | 0.0 | 0.00 | 0.00 | 0.00 | 98 | 1019.3 |
| 20260906112129 | 62 | 8 | 0.0 | 0.0 | 0.00 | 0.00 | 0.00 | 98 | 1019.1 |
| 20260906111628 | 62 | 8 | 0.0 | 0.0 | 0.00 | 0.00 | 0.00 | 98 | 1019.0 |
| 20260906111123 | 62 | 8 | 0.0 | 0.0 | 0.00 | 0.00 | 0.00 | 98 | 1019.1 |
| 20260906110618 | 62 | 8 | 0.0 | 0.0 | 0.00 | 0.00 | 0.00 | 98 | 1019.0 |
| 20260906110118 | 62 | 8 | 0.0 | 0.0 | 0.00 | 0.00 | 0.00 | 98 | 1019.0 |
| 20260906105612 | 63 | 7 | 0.0 | 0.0 | 0.00 | 0.00 | 0.00 | 98 | 1018.9 |
| 20260906105108 | 63 | 7 | 0.0 | 0.0 | 0.00 | 0.00 | 0.00 | 98 | 1018.9 |
| 20260906104608 | 63 | 9 | 0.0 | 1.0 | 0.00 | 0.00 | 0.00 | 98 | 1019.0 |
| 20260906104101 | 63 | 11 | 0.0 | 0.0 | 0.00 | 0.00 | 0.00 | 98 | 1019.1 |
| 20260906103600 | 63 | 11 | 0.0 | 0.0 | 0.00 | 0.00 | 0.00 | 98 | 1019.0 |
| 20260906103055 | 63 | 15 | 0.0 | 0.0 | 0.00 | 0.00 | 0.00 | 98 | 1019.3 |
| 20260906102555 | 63 | 17 | 0.0 | 0.0 | 0.00 | 0.00 | 0.00 | 98 | 1019.2 |
| 20260906102050 | 63 | 2 | 0.0 | 0.0 | 0.00 | 0.00 | 0.00 | 98 | 1019.2 |
| 20260906101544 | 63 | 21 | 0.0 | 0.0 | 0.00 | 0.00 | 0.00 | 98 | 1018.9 |
| 20260906101039 | 63 | 23 | 0.0 | 0.0 | 0.00 | 0.00 | 0.00 | 98 | 1018.9 |
| 20260906100536 | 63 | 22 | 0.0 | 0.0 | 0.00 | 0.00 | 0.00 | 98 | 1019.0 |
| 20260906100035 | 62 | 22 | 0.0 | 0.0 | 0.00 | 0.00 | 0.00 | 98 | 1019.0 |
| 20260906095530 | 62 | 22 | 0.0 | 0.0 | 0.00 | 0.00 | 0.00 | 98 | 1018.9 |
| 20260906095025 | 62 | 22 | 0.0 | 0.0 | 0.00 | 0.00 | 0.00 | 98 | 1018.8 |
| 20260906094519 | 62 | 22 | 0.0 | 0.0 | 0.00 | 0.00 | 0.00 | 98 | 1018.8 |
| 20260906094015 | 62 | 22 | 0.0 | 0.0 | 0.00 | 0.00 | 0.00 | 98 | 1018.7 |
| 20260906093511 | 62 | 22 | 0.0 | 0.0 | 0.00 | 0.00 | 0.00 | 97 | 1018.7 |
| 20260906093011 | 62 | 23 | 0.0 | 0.0 | 0.00 | 0.00 | 0.00 | 97 | 1018.8 |
| 20260906092510 | 62 | 22 | 0.0 | 0.0 | 0.00 | 0.00 | 0.00 | 97 | 1018.7 |
| 20260906092006 | 62 | 22 | 0.0 | 0.0 | 0.00 | 0.00 | 0.00 | 97 | 1018.8 |
| 20260906091501 | 62 | 22 | 0.0 | 0.0 | 0.00 | 0.00 | 0.00 | 97 | 1018.7 |
| 20260906090958 | 62 | 22 | 0.0 | 0.0 | 0.00 | 0.00 | 0.00 | 97 | 1018.6 |
| 20260906090453 | 62 | 23 | 0.0 | 0.0 | 0.00 | 0.00 | 0.00 | 97 | 1018.5 |
| 20260906085953 | 62 | 22 | 0.0 | 0.0 | 0.00 | 0.00 | 0.00 | 97 | 1018.6 |
| 20260906085452 | 62 | 22 | 0.0 | 0.0 | 0.00 | 0.00 | 0.00 | 97 | 1018.4 |
| 20260906084951 | 62 | 22 | 0.0 | 0.0 | 0.00 | 0.00 | 0.00 | 97 | 1018.8 |
| 20260906084446 | 62 | 22 | 0.0 | 0.0 | 0.00 | 0.00 | 0.00 | 97 | 1018.6 |
| 20260906083945 | 62 | 22 | 0.0 | 0.0 | 0.00 | 0.00 | 0.00 | 97 | 1018.5 |
| 20260906083441 | 62 | 22 | 0.0 | 0.0 | 0.00 | 0.00 | 0.00 | 97 | 1018.6 |
| 20260906082940 | 62 | 23 | 0.0 | 0.0 | 0.00 | 0.00 | 0.00 | 97 | 1018.4 |
| 20260906082436 | 62 | 22 | 0.0 | 0.0 | 0.00 | 0.00 | 0.00 | 97 | 1018.6 |
| 20260906081931 | 63 | 22 | 0.0 | 0.0 | 0.00 | 0.00 | 0.00 | 97 | 1018.7 |
| 20260906081426 | 63 | 22 | 0.0 | 0.0 | 0.00 | 0.00 | 0.00 | 97 | 1018.6 |
| 20260906080923 | 63 | 22 | 0.0 | 0.0 | 0.00 | 0.00 | 0.00 | 97 | 1018.5 |
| 20260906080420 | 63 | 22 | 0.0 | 0.0 | 0.00 | 0.00 | 0.00 | 97 | 1018.7 |
| 20260906075919 | 63 | 22 | 0.0 | 0.0 | 0.00 | 0.00 | 0.00 | 97 | 1018.9 |
| 20260906075414 | 63 | 22 | 0.0 | 0.0 | 0.00 | 0.00 | 0.00 | 97 | 1018.6 |
| 20260906074909 | 63 | 22 | 0.0 | 0.0 | 0.00 | 0.00 | 0.00 | 97 | 1018.8 |
| 20260906074408 | 63 | 22 | 0.0 | 0.0 | 0.00 | 0.00 | 0.00 | 97 | 1018.8 |
| 20260906073907 | 63 | 22 | 0.0 | 0.0 | 0.00 | 0.00 | 0.00 | 97 | 1018.8 |
| 20260906073402 | 63 | 22 | 0.0 | 0.0 | 0.00 | 0.00 | 0.00 | 97 | 1018.8 |
| 20260906072859 | 63 | 22 | 0.0 | 0.0 | 0.00 | 0.00 | 0.00 | 96 | 1018.7 |
| 20260906072354 | 63 | 22 | 0.0 | 0.0 | 0.00 | 0.00 | 0.00 | 96 | 1018.8 |
| 20260906071850 | 64 | 22 | 0.0 | 0.0 | 0.00 | 0.00 | 0.00 | 96 | 1018.8 |
| 20260906071345 | 64 | 22 | 0.0 | 0.0 | 0.00 | 0.00 | 0.00 | 97 | 1018.9 |
| 20260906070841 | 64 | 22 | 0.0 | 0.0 | 0.00 | 0.00 | 0.00 | 96 | 1019.0 |
| 20260906070337 | 64 | 22 | 0.0 | 0.0 | 0.00 | 0.00 | 0.00 | 96 | 1018.9 |
| 20260906065832 | 64 | 22 | 0.0 | 0.0 | 0.00 | 0.00 | 0.00 | 96 | 1019.1 |
| 20260906065326 | 64 | 23 | 0.0 | 0.0 | 0.00 | 0.00 | 0.00 | 96 | 1018.9 |
| 20260906064822 | 64 | 23 | 0.0 | 0.0 | 0.00 | 0.00 | 0.00 | 96 | 1019.0 |
| 20260906064319 | 64 | 23 | 0.0 | 0.0 | 0.00 | 0.00 | 0.00 | 96 | 1018.9 |
| 20260906063818 | 64 | 23 | 0.0 | 0.0 | 0.00 | 0.00 | 0.00 | 96 | 1018.8 |
| 20260906063314 | 64 | 23 | 0.0 | 0.0 | 0.00 | 0.00 | 0.00 | 96 | 1018.8 |
| 20260906062809 | 64 | 23 | 0.0 | 0.0 | 0.00 | 0.00 | 0.00 | 96 | 1019.0 |
| 20260906062308 | 65 | 23 | 0.0 | 0.0 | 0.00 | 0.00 | 0.00 | 96 | 1019.1 |
| 20260906061803 | 65 | 23 | 0.0 | 0.0 | 0.00 | 0.00 | 0.00 | 96 | 1019.2 |
| 20260906061300 | 65 | 23 | 0.0 | 0.0 | 0.00 | 0.00 | 0.00 | 96 | 1019.1 |
| 20260906060755 | 65 | 21 | 0.0 | 0.0 | 0.00 | 0.00 | 0.00 | 95 | 1019.2 |
| 20260906060252 | 65 | 21 | 0.0 | 0.0 | 0.00 | 0.00 | 0.00 | 95 | 1019.2 |
| 20260906055748 | 65 | 21 | 0.0 | 0.0 | 0.00 | 0.00 | 0.00 | 95 | 1019.1 |
| 20260906055243 | 66 | 21 | 0.0 | 0.0 | 0.00 | 0.00 | 0.00 | 95 | 1019.1 |
| 20260906054738 | 66 | 21 | 0.0 | 0.0 | 0.00 | 0.00 | 0.00 | 95 | 1018.8 |
| 20260906054233 | 66 | 22 | 0.0 | 1.0 | 0.00 | 0.00 | 0.00 | 95 | 1018.8 |
| 20260906053730 | 66 | 358 | 0.0 | 1.0 | 0.00 | 0.00 | 0.00 | 95 | 1018.8 |
| 20260906053225 | 66 | 12 | 0.0 | 0.0 | 0.00 | 0.00 | 0.00 | 95 | 1018.7 |
| 20260906052720 | 67 | 12 | 0.0 | 0.0 | 0.00 | 0.00 | 0.00 | 94 | 1018.7 |
| 20260906052217 | 67 | 16 | 0.0 | 1.0 | 0.00 | 0.00 | 0.00 | 94 | 1018.5 |
| 20260906051714 | 67 | 25 | 0.0 | 0.0 | 0.00 | 0.00 | 0.00 | 94 | 1018.5 |
| 20260906051213 | 67 | 26 | 0.0 | 0.0 | 0.00 | 0.00 | 0.00 | 94 | 1018.7 |
| 20260906050708 | 67 | 0 | 0.0 | 1.0 | 0.00 | 0.00 | 0.00 | 94 | 1018.8 |
| 20260906050203 | 67 | 16 | 0.0 | 0.0 | 0.00 | 0.00 | 0.00 | 94 | 1018.7 |
| 20260906045701 | 67 | 24 | 0.0 | 1.0 | 0.00 | 0.01 | 0.01 | 94 | 1018.4 |
| 20260906045156 | 67 | 21 | 0.0 | 0.0 | 0.00 | 0.01 | 0.01 | 93 | 1018.5 |
| 20260906044653 | 68 | 16 | 0.0 | 0.0 | 0.00 | 0.01 | 0.01 | 93 | 1018.2 |
| 20260906044148 | 68 | 16 | 0.0 | 0.0 | 0.00 | 0.01 | 0.01 | 93 | 1018.4 |
| 20260906043644 | 68 | 7 | 0.0 | 1.0 | 0.00 | 0.01 | 0.01 | 93 | 1018.3 |
| 20260906043139 | 68 | 15 | 0.0 | 0.0 | 0.00 | 0.01 | 0.01 | 92 | 1018.1 |
| 20260906042639 | 68 | 8 | 0.0 | 0.0 | 0.00 | 0.01 | 0.01 | 92 | 1018.1 |
| 20260906042133 | 68 | 349 | 0.0 | 0.0 | 0.00 | 0.01 | 0.01 | 91 | 1018.4 |
| 20260906041630 | 68 | 1 | 1.0 | 1.0 | 0.00 | 0.01 | 0.01 | 91 | 1018.2 |
| 20260906041130 | 68 | 10 | 0.0 | 1.0 | 0.00 | 0.01 | 0.01 | 91 | 1018.2 |
| 20260906040625 | 68 | 10 | 0.0 | 0.0 | 0.00 | 0.01 | 0.01 | 91 | 1018.2 |
| 20260906040120 | 68 | 349 | 0.0 | 1.0 | 0.00 | 0.01 | 0.01 | 90 | 1017.9 |
| 20260906035615 | 69 | 2 | 0.0 | 1.0 | 0.00 | 0.01 | 0.01 | 90 | 1018.0 |
| 20260906035111 | 69 | 3 | 0.0 | 0.0 | 0.00 | 0.01 | 0.01 | 89 | 1018.0 |
| 20260906034606 | 69 | 1 | 0.0 | 1.0 | 0.00 | 0.01 | 0.01 | 89 | 1018.0 |
| 20260906034101 | 69 | 20 | 1.0 | 1.0 | 0.00 | 0.01 | 0.01 | 89 | 1017.9 |
| 20260906033556 | 69 | 18 | 0.0 | 2.0 | 0.00 | 0.01 | 0.01 | 89 | 1018.0 |
| 20260906033051 | 69 | 356 | 0.0 | 1.0 | 0.00 | 0.01 | 0.01 | 89 | 1017.9 |
| 20260906032548 | 69 | 19 | 0.0 | 0.0 | 0.00 | 0.01 | 0.01 | 89 | 1017.9 |
| 20260906032047 | 69 | 21 | 0.0 | 1.0 | 0.00 | 0.01 | 0.01 | 88 | 1017.9 |
| 20260906031543 | 70 | 12 | 0.0 | 1.0 | 0.00 | 0.01 | 0.01 | 88 | 1017.9 |
| 20260906031038 | 70 | 12 | 0.0 | 1.0 | 0.00 | 0.01 | 0.01 | 88 | 1017.7 |
| 20260906030538 | 70 | 1 | 1.0 | 2.0 | 0.00 | 0.01 | 0.01 | 88 | 1017.9 |
| 20260906030037 | 70 | 34 | 1.0 | 2.0 | 0.00 | 0.01 | 0.01 | 88 | 1017.7 |
| 20260906025537 | 70 | 359 | 0.0 | 0.0 | 0.00 | 0.01 | 0.01 | 88 | 1017.5 |
| 20260906025036 | 70 | 21 | 0.0 | 1.0 | 0.00 | 0.01 | 0.01 | 88 | 1017.5 |
| 20260906024531 | 70 | 116 | 0.0 | 1.0 | 0.00 | 0.01 | 0.01 | 89 | 1017.7 |
| 20260906024031 | 70 | 4 | 0.0 | 1.0 | 0.00 | 0.01 | 0.01 | 88 | 1017.6 |
| 20260906023527 | 70 | 139 | 2.0 | 2.0 | 0.00 | 0.01 | 0.01 | 88 | 1017.4 |
| 20260906023022 | 70 | 18 | 0.0 | 8.0 | 0.00 | 0.01 | 0.01 | 89 | 1017.2 |
| 20260906022517 | 71 | 113 | 1.0 | 2.0 | 0.00 | 0.01 | 0.01 | 89 | 1016.9 |
| 20260906022013 | 71 | 112 | 2.0 | 2.0 | 0.00 | 0.01 | 0.01 | 88 | 1017.0 |
| 20260906021509 | 71 | 87 | 2.0 | 3.0 | 0.00 | 0.01 | 0.01 | 89 | 1017.0 |
| 20260906021008 | 71 | 20 | 1.0 | 7.0 | 0.00 | 0.01 | 0.01 | 89 | 1017.0 |
| 20260906020507 | 71 | 89 | 2.0 | 6.0 | 0.00 | 0.01 | 0.01 | 89 | 1016.8 |
| 20260906020007 | 71 | 29 | 0.0 | 2.0 | 0.00 | 0.01 | 0.01 | 88 | 1016.8 |
| 20260906015506 | 71 | 17 | 1.0 | 2.0 | 0.00 | 0.01 | 0.01 | 88 | 1016.8 |
| 20260906015007 | 71 | 3 | 0.0 | 6.0 | 0.00 | 0.01 | 0.01 | 88 | 1016.9 |
| 20260906014501 | 72 | 21 | 1.0 | 2.0 | 0.00 | 0.01 | 0.01 | 87 | 1016.6 |
| 20260906013957 | 72 | 189 | 2.0 | 3.0 | 0.00 | 0.01 | 0.01 | 87 | 1016.8 |
| 20260906013452 | 72 | 35 | 1.0 | 2.0 | 0.00 | 0.01 | 0.01 | 86 | 1017.0 |
| 20260906012948 | 73 | 16 | 2.0 | 4.0 | 0.00 | 0.01 | 0.01 | 86 | 1016.8 |
| 20260906012442 | 73 | 88 | 2.0 | 3.0 | 0.00 | 0.01 | 0.01 | 86 | 1016.8 |
| 20260906011942 | 73 | 14 | 0.0 | 2.0 | 0.00 | 0.01 | 0.01 | 85 | 1016.7 |
| 20260906011437 | 74 | 97 | 0.0 | 2.0 | 0.00 | 0.01 | 0.01 | 84 | 1016.9 |
| 20260906010932 | 74 | 9 | 0.0 | 4.0 | 0.00 | 0.01 | 0.01 | 84 | 1016.9 |
| 20260906010428 | 74 | 25 | 2.0 | 3.0 | 0.00 | 0.01 | 0.01 | 84 | 1016.9 |
| 20260906005924 | 74 | 39 | 0.0 | 3.0 | 0.00 | 0.01 | 0.01 | 83 | 1016.8 |
| 20260906005423 | 75 | 4 | 0.0 | 0.0 | 0.00 | 0.01 | 0.01 | 82 | 1016.8 |
| 20260906004922 | 75 | 8 | 0.0 | 3.0 | 0.00 | 0.01 | 0.01 | 82 | 1016.8 |
| 20260906004416 | 75 | 140 | 1.0 | 6.0 | 0.00 | 0.01 | 0.01 | 81 | 1016.6 |
| 20260906003912 | 75 | 346 | 1.0 | 4.0 | 0.00 | 0.01 | 0.01 | 81 | 1016.7 |
| 20260906003407 | 76 | 14 | 2.0 | 6.0 | 0.00 | 0.01 | 0.01 | 81 | 1016.6 |
| 20260906002902 | 76 | 26 | 0.0 | 2.0 | 0.00 | 0.01 | 0.01 | 81 | 1016.5 |
| 20260906002401 | 77 | 77 | 1.0 | 3.0 | 0.00 | 0.01 | 0.01 | 81 | 1016.4 |
| 20260906001857 | 77 | 16 | 0.0 | 3.0 | 0.00 | 0.01 | 0.01 | 81 | 1016.5 |
| 20260906001354 | 77 | 48 | 1.0 | 3.0 | 0.00 | 0.01 | 0.01 | 80 | 1016.4 |
| 20260906000854 | 78 | 37 | 2.0 | 2.0 | 0.00 | 0.01 | 0.01 | 80 | 1016.4 |
| 20260906000355 | 78 | 15 | 1.0 | 3.0 | 0.00 | 0.01 | 0.01 | 78 | 1016.5 |
| 20260905235848 | 78 | 9 | 1.0 | 3.0 | 0.00 | 0.01 | 0.01 | 77 | 1016.4 |
| 20260905235342 | 79 | 22 | 2.0 | 7.0 | 0.00 | 0.01 | 0.01 | 76 | 1016.2 |
| 20260905234838 | 79 | 57 | 1.0 | 8.0 | 0.00 | 0.01 | 0.01 | 77 | 1016.3 |
| 20260905234333 | 79 | 33 | 4.0 | 4.0 | 0.00 | 0.01 | 0.01 | 76 | 1016.3 |
| 20260905233828 | 79 | 47 | 3.0 | 7.0 | 0.00 | 0.01 | 0.01 | 75 | 1016.3 |
| 20260905233323 | 79 | 10 | 0.0 | 1.0 | 0.00 | 0.01 | 0.01 | 75 | 1016.4 |
| 20260905232822 | 80 | 3 | 0.0 | 4.0 | 0.00 | 0.01 | 0.01 | 74 | 1016.3 |
| 20260905232319 | 80 | 33 | 4.0 | 7.0 | 0.00 | 0.01 | 0.01 | 73 | 1016.3 |
| 20260905231814 | 80 | 354 | 2.0 | 3.0 | 0.00 | 0.01 | 0.01 | 73 | 1016.4 |
| 20260905231309 | 81 | 259 | 3.0 | 7.0 | 0.00 | 0.01 | 0.01 | 72 | 1016.2 |
| 20260905230805 | 81 | 24 | 1.0 | 6.0 | 0.00 | 0.01 | 0.01 | 72 | 1016.1 |
| 20260905230303 | 81 | 7 | 2.0 | 6.0 | 0.00 | 0.01 | 0.01 | 73 | 1016.2 |
| 20260905225803 | 81 | 352 | 2.0 | 4.0 | 0.00 | 0.01 | 0.01 | 72 | 1016.1 |
| 20260905225258 | 81 | 54 | 2.0 | 3.0 | 0.00 | 0.01 | 0.01 | 71 | 1016.1 |
| 20260905224757 | 81 | 356 | 2.0 | 3.0 | 0.00 | 0.01 | 0.01 | 70 | 1015.8 |
| 20260905224253 | 82 | 20 | 1.0 | 3.0 | 0.00 | 0.01 | 0.01 | 71 | 1015.8 |
| 20260905223748 | 82 | 53 | 2.0 | 4.0 | 0.00 | 0.01 | 0.01 | 71 | 1015.8 |
| 20260905223246 | 82 | 75 | 2.0 | 3.0 | 0.00 | 0.01 | 0.01 | 70 | 1015.9 |
| 20260905222741 | 83 | 3 | 5.0 | 7.0 | 0.00 | 0.01 | 0.01 | 68 | 1016.1 |
| 20260905222240 | 82 | 290 | 2.0 | 3.0 | 0.00 | 0.01 | 0.01 | 69 | 1016.0 |
| 20260905221736 | 82 | 3 | 2.0 | 6.0 | 0.00 | 0.01 | 0.01 | 68 | 1016.1 |
| 20260905221233 | 83 | 331 | 2.0 | 6.0 | 0.00 | 0.01 | 0.01 | 69 | 1016.0 |
| 20260905220728 | 83 | 6 | 1.0 | 2.0 | 0.00 | 0.01 | 0.01 | 67 | 1015.8 |
| 20260905220224 | 83 | 27 | 0.0 | 1.0 | 0.00 | 0.01 | 0.01 | 69 | 1016.0 |
| 20260905215723 | 83 | 352 | 5.0 | 7.0 | 0.00 | 0.01 | 0.01 | 67 | 1015.9 |
| 20260905215219 | 83 | 354 | 0.0 | 3.0 | 0.00 | 0.01 | 0.01 | 67 | 1015.9 |
| 20260905214715 | 83 | 356 | 0.0 | 7.0 | 0.00 | 0.01 | 0.01 | 68 | 1015.7 |
| 20260905214210 | 82 | 356 | 0.0 | 2.0 | 0.00 | 0.01 | 0.01 | 69 | 1015.7 |
| 20260905213705 | 83 | 23 | 8.0 | 13.0 | 0.00 | 0.01 | 0.01 | 66 | 1015.6 |
| 20260905213201 | 82 | 25 | 0.0 | 1.0 | 0.00 | 0.01 | 0.01 | 71 | 1015.7 |
| 20260905212656 | 82 | 350 | 3.0 | 4.0 | 0.00 | 0.01 | 0.01 | 69 | 1015.7 |
| 20260905212155 | 81 | 27 | 4.0 | 6.0 | 0.00 | 0.01 | 0.01 | 69 | 1015.6 |
| 20260905211650 | 82 | 7 | 1.0 | 6.0 | 0.00 | 0.01 | 0.01 | 71 | 1015.7 |
| 20260905211146 | 83 | 55 | 1.0 | 6.0 | 0.00 | 0.01 | 0.01 | 69 | 1015.7 |
| 20260905210643 | 84 | 51 | 3.0 | 4.0 | 0.00 | 0.01 | 0.01 | 69 | 1015.7 |
| 20260905210142 | 83 | 343 | 1.0 | 2.0 | 0.00 | 0.01 | 0.01 | 69 | 1015.9 |
| 20260905205641 | 82 | 37 | 1.0 | 4.0 | 0.00 | 0.01 | 0.01 | 72 | 1015.9 |
| 20260905205136 | 82 | 9 | 0.0 | 2.0 | 0.00 | 0.01 | 0.01 | 71 | 1016.2 |
| 20260905204635 | 82 | 348 | 1.0 | 4.0 | 0.00 | 0.01 | 0.01 | 71 | 1016.2 |
| 20260905204131 | 82 | 38 | 0.0 | 2.0 | 0.00 | 0.01 | 0.01 | 73 | 1016.1 |
| 20260905203631 | 82 | 32 | 4.0 | 6.0 | 0.00 | 0.01 | 0.01 | 71 | 1016.2 |
| 20260905203126 | 83 | 340 | 0.0 | 3.0 | 0.00 | 0.01 | 0.01 | 70 | 1016.2 |
| 20260905202622 | 83 | 25 | 0.0 | 1.0 | 0.00 | 0.01 | 0.01 | 70 | 1016.1 |
| 20260905202117 | 83 | 39 | 2.0 | 4.0 | 0.00 | 0.01 | 0.01 | 70 | 1015.9 |
| 20260905201613 | 82 | 346 | 0.0 | 1.0 | 0.00 | 0.01 | 0.01 | 75 | 1016.2 |
| 20260905201112 | 82 | 359 | 0.0 | 1.0 | 0.00 | 0.01 | 0.01 | 74 | 1016.4 |
| 20260905200608 | 81 | 0 | 0.0 | 1.0 | 0.00 | 0.01 | 0.01 | 74 | 1016.2 |
| 20260905195601 | 80 | 5 | 1.0 | 2.0 | 0.00 | 0.01 | 0.01 | 79 | 1016.4 |
| 20260905195057 | 78 | 2 | 0.0 | 3.0 | 0.00 | 0.01 | 0.01 | 78 | 1016.2 |
| 20260905194556 | 78 | 16 | 0.0 | 1.0 | 0.00 | 0.01 | 0.01 | 80 | 1016.4 |
| 20260905194056 | 78 | 15 | 0.0 | 4.0 | 0.00 | 0.01 | 0.01 | 81 | 1016.4 |
| 20260905193551 | 78 | 135 | 1.0 | 7.0 | 0.00 | 0.01 | 0.01 | 80 | 1016.6 |
| 20260905193046 | 78 | 35 | 1.0 | 2.0 | 0.00 | 0.01 | 0.01 | 81 | 1016.3 |
| 20260905192541 | 78 | 23 | 1.0 | 1.0 | 0.00 | 0.01 | 0.01 | 81 | 1016.5 |
| 20260905192038 | 78 | 23 | 0.0 | 3.0 | 0.00 | 0.01 | 0.01 | 80 | 1016.5 |
| 20260905191536 | 78 | 104 | 1.0 | 3.0 | 0.00 | 0.01 | 0.01 | 81 | 1016.3 |
| 20260905191035 | 78 | 20 | 1.0 | 3.0 | 0.00 | 0.01 | 0.01 | 81 | 1016.3 |
| 20260905190533 | 78 | 9 | 0.0 | 2.0 | 0.00 | 0.01 | 0.01 | 82 | 1016.3 |
| 20260905190027 | 78 | 14 | 1.0 | 3.0 | 0.00 | 0.01 | 0.01 | 81 | 1016.4 |
| 20260905185521 | 78 | 13 | 2.0 | 6.0 | 0.00 | 0.01 | 0.01 | 81 | 1016.7 |
| 20260905185020 | 78 | 25 | 2.0 | 6.0 | 0.00 | 0.01 | 0.01 | 81 | 1016.7 |
| 20260905184515 | 78 | 345 | 0.0 | 3.0 | 0.00 | 0.01 | 0.01 | 82 | 1016.7 |
| 20260905184014 | 78 | 268 | 2.0 | 3.0 | 0.00 | 0.01 | 0.01 | 82 | 1016.8 |
| 20260905183514 | 78 | 21 | 3.0 | 4.0 | 0.00 | 0.01 | 0.01 | 83 | 1016.7 |
| 20260905183009 | 78 | 31 | 2.0 | 6.0 | 0.00 | 0.01 | 0.01 | 82 | 1016.5 |
| 20260905182508 | 78 | 58 | 1.0 | 3.0 | 0.00 | 0.01 | 0.01 | 83 | 1016.7 |
| 20260905182003 | 78 | 25 | 2.0 | 6.0 | 0.00 | 0.01 | 0.01 | 81 | 1016.6 |
| 20260905181458 | 78 | 13 | 1.0 | 3.0 | 0.00 | 0.01 | 0.01 | 82 | 1016.8 |
| 20260905180957 | 78 | 67 | 5.0 | 6.0 | 0.00 | 0.01 | 0.01 | 81 | 1016.8 |
| 20260905180458 | 78 | 24 | 2.0 | 2.0 | 0.00 | 0.01 | 0.01 | 82 | 1016.6 |
| 20260905175953 | 78 | 23 | 2.0 | 4.0 | 0.00 | 0.01 | 0.01 | 83 | 1016.7 |
| 20260905175453 | 78 | 0 | 0.0 | 4.0 | 0.00 | 0.01 | 0.01 | 82 | 1016.5 |
| 20260905174949 | 78 | 212 | 1.0 | 2.0 | 0.00 | 0.01 | 0.01 | 84 | 1016.7 |
| 20260905174449 | 78 | 20 | 3.0 | 6.0 | 0.00 | 0.01 | 0.01 | 83 | 1016.6 |
| 20260905173944 | 78 | 344 | 1.0 | 3.0 | 0.00 | 0.01 | 0.01 | 83 | 1016.7 |
| 20260905173441 | 78 | 17 | 0.0 | 1.0 | 0.00 | 0.01 | 0.01 | 83 | 1016.8 |
| 20260905172936 | 78 | 4 | 3.0 | 4.0 | 0.00 | 0.01 | 0.01 | 83 | 1016.6 |
| 20260905172434 | 78 | 355 | 0.0 | 3.0 | 0.00 | 0.01 | 0.01 | 83 | 1016.7 |
| 20260905171930 | 78 | 29 | 2.0 | 3.0 | 0.00 | 0.01 | 0.01 | 84 | 1016.6 |
| 20260905171426 | 78 | 356 | 3.0 | 4.0 | 0.00 | 0.01 | 0.01 | 81 | 1016.7 |
| 20260905170922 | 78 | 6 | 3.0 | 8.0 | 0.00 | 0.01 | 0.01 | 82 | 1016.8 |
| 20260905170418 | 78 | 34 | 4.0 | 6.0 | 0.00 | 0.01 | 0.01 | 82 | 1016.8 |
| 20260905165917 | 79 | 8 | 2.0 | 6.0 | 0.00 | 0.01 | 0.01 | 83 | 1016.7 |
| 20260905165413 | 80 | 52 | 4.0 | 8.0 | 0.00 | 0.01 | 0.01 | 80 | 1016.7 |
| 20260905164909 | 80 | 5 | 2.0 | 4.0 | 0.00 | 0.01 | 0.01 | 80 | 1016.6 |
| 20260905164408 | 80 | 9 | 1.0 | 4.0 | 0.00 | 0.01 | 0.01 | 80 | 1016.6 |
| 20260905163903 | 79 | 143 | 1.0 | 4.0 | 0.00 | 0.01 | 0.01 | 81 | 1016.6 |
| 20260905163400 | 79 | 25 | 3.0 | 6.0 | 0.00 | 0.01 | 0.01 | 81 | 1016.6 |
| 20260905162856 | 79 | 338 | 2.0 | 7.0 | 0.00 | 0.01 | 0.01 | 82 | 1016.8 |
| 20260905162355 | 79 | 14 | 2.0 | 3.0 | 0.00 | 0.01 | 0.01 | 82 | 1016.5 |
| 20260905161850 | 79 | 14 | 0.0 | 6.0 | 0.00 | 0.01 | 0.01 | 82 | 1016.7 |
| 20260905161350 | 79 | 11 | 2.0 | 3.0 | 0.00 | 0.01 | 0.01 | 82 | 1016.6 |
| 20260905160849 | 79 | 4 | 4.0 | 7.0 | 0.00 | 0.01 | 0.01 | 81 | 1016.6 |
| 20260905160343 | 79 | 6 | 1.0 | 3.0 | 0.00 | 0.01 | 0.01 | 82 | 1016.8 |
| 20260905155843 | 80 | 346 | 2.0 | 8.0 | 0.00 | 0.01 | 0.01 | 80 | 1016.7 |
| 20260905155337 | 80 | 357 | 1.0 | 4.0 | 0.00 | 0.01 | 0.01 | 81 | 1016.6 |
| 20260905154836 | 79 | 9 | 4.0 | 6.0 | 0.00 | 0.01 | 0.01 | 81 | 1016.5 |
| 20260905154332 | 80 | 11 | 3.0 | 6.0 | 0.00 | 0.01 | 0.01 | 80 | 1016.5 |
| 20260905153827 | 79 | 7 | 1.0 | 4.0 | 0.00 | 0.01 | 0.01 | 81 | 1016.5 |
| 20260905153324 | 80 | 20 | 1.0 | 3.0 | 0.00 | 0.01 | 0.01 | 82 | 1016.5 |
| 20260905152823 | 78 | 1 | 1.0 | 4.0 | 0.00 | 0.01 | 0.01 | 83 | 1016.6 |
| 20260905152322 | 79 | 317 | 2.0 | 4.0 | 0.00 | 0.01 | 0.01 | 84 | 1016.5 |
| 20260905151818 | 79 | 45 | 1.0 | 4.0 | 0.00 | 0.01 | 0.01 | 83 | 1016.4 |
| 20260905151313 | 78 | 58 | 2.0 | 2.0 | 0.00 | 0.01 | 0.01 | 84 | 1016.4 |
| 20260905150813 | 78 | 359 | 2.0 | 6.0 | 0.00 | 0.01 | 0.01 | 84 | 1016.2 |
| 20260905150314 | 78 | 2 | 3.0 | 4.0 | 0.00 | 0.01 | 0.01 | 84 | 1016.0 |
| 20260905145811 | 77 | 20 | 2.0 | 3.0 | 0.00 | 0.01 | 0.01 | 85 | 1015.9 |
| 20260905145310 | 77 | 30 | 2.0 | 4.0 | 0.00 | 0.01 | 0.01 | 85 | 1016.0 |
| 20260905144809 | 77 | 14 | 1.0 | 2.0 | 0.00 | 0.01 | 0.01 | 88 | 1016.0 |
| 20260905144305 | 76 | 326 | 1.0 | 2.0 | 0.00 | 0.01 | 0.01 | 88 | 1015.8 |
| 20260905143804 | 75 | 4 | 0.0 | 2.0 | 0.00 | 0.01 | 0.01 | 90 | 1015.9 |
| 20260905143258 | 75 | 12 | 0.0 | 2.0 | 0.00 | 0.01 | 0.01 | 91 | 1016.0 |
| 20260905142757 | 74 | 4 | 4.0 | 6.0 | 0.00 | 0.01 | 0.01 | 90 | 1016.0 |
| 20260905142251 | 75 | 0 | 1.0 | 4.0 | 0.00 | 0.01 | 0.01 | 90 | 1015.7 |
| 20260905141748 | 75 | 140 | 2.0 | 2.0 | 0.00 | 0.01 | 0.01 | 90 | 1015.8 |
| 20260905141243 | 75 | 9 | 1.0 | 2.0 | 0.00 | 0.01 | 0.01 | 91 | 1015.7 |
| 20260905140738 | 74 | 63 | 1.0 | 2.0 | 0.00 | 0.01 | 0.01 | 91 | 1015.8 |
| 20260905140233 | 74 | 44 | 0.0 | 1.0 | 0.00 | 0.01 | 0.01 | 91 | 1015.8 |
| 20260905135732 | 74 | 36 | 2.0 | 4.0 | 0.00 | 0.01 | 0.01 | 91 | 1015.9 |
| 20260905135228 | 74 | 0 | 1.0 | 3.0 | 0.00 | 0.01 | 0.01 | 91 | 1015.8 |
| 20260905134727 | 74 | 25 | 1.0 | 2.0 | 0.00 | 0.01 | 0.01 | 91 | 1016.0 |
| 20260905134227 | 74 | 14 | 1.0 | 3.0 | 0.00 | 0.01 | 0.01 | 90 | 1015.9 |
| 20260905133722 | 74 | 44 | 2.0 | 2.0 | 0.00 | 0.01 | 0.01 | 90 | 1015.8 |